User: anonymous   Login
Location: Unspecified
(0.0000°N, 0.0000°E)
Time: 23:18:27
(UTC+00:00)
Language:

STARLINK-36087 - Orbit

View from above orbital plane
View from above orbital plane
View from above satellite
View from above satellite

Ground track
Ground track

The orbit is defined by the following mean orbital elements,

1 66854U          26145.35736615 +.00000000 +00000-0 +11680-2 0 00004
2 66854  42.9984 270.2574 0001057 276.5358  83.5373 15.27614181    08
Epoch (UTC): 25 May 2026 08:34:36
Eccentricity: 0.0001057
inclination: 42.9984°
perigee height: 482 km
apogee height: 484 km
right ascension of ascending node: 270.2574°
argument of perigee: 276.5358°
revolutions per day: 15.27614181
mean anomaly at epoch: 83.5373°

The dashed part of the orbit path shows where the satellite is in the earth's shadow,  

DLR